START_TIME,STEP,MOV.,H8,t_acc.,H43,t_acc.,M25,t_acc.,H9,t_acc.
1979-07-02 18:00:30.370 ,0,1,0.,12.0,0.,12.0,0.,12.0,0.,12.0
1979-07-02 18:00:42.370 ,0,1,0.,12.0,0.,12.0,0.,12.0,0.,12.0
1979-07-02 18:00:54.370 ,4,1,0.,12.0,0.,12.0,0.,12.0,0.,12.0
1979-07-02 18:01:06.370 ,4,1,0.,12.0,0.,12.0,0.,12.0,0.,12.0
1979-07-02 18:01:18.370 ,7,1,0.,12.0,0.,12.0,0.,12.0,0.,12.0
1979-07-02 18:01:30.370 ,7,1,0.,12.0,0.,12.0,0.,12.0,0.,12.0
1979-07-02 18:01:42.370 ,3,1,0.,12.0,0.,12.0,0.,12.0,0.,12.0
1979-07-02 18:01:54.370 ,3,1,0.,12.0,0.,12.0,0.,12.0,0.,12.0
1979-07-02 18:02:06.370 ,0,1,0.,12.0,0.,12.0,0.,12.0,0.,12.0
1979-07-02 18:02:18.370 ,0,1,0.,12.0,0.,12.0,0.,12.0,0.,12.0
1979-07-02 18:02:30.370 ,4,1,0.,12.0,0.,12.0,0.,12.0,0.,12.0
1979-07-02 18:02:42.370 ,4,1,0.,12.0,0.,12.0,0.,12.0,0.,12.0
1979-07-02 18:02:54.370 ,7,1,0.,12.0,0.,12.0,0.,12.0,0.,12.0
1979-07-02 18:03:06.370 ,7,1,0.,12.0,0.,12.0,0.,12.0,0.,12.0
1979-07-02 18:03:18.370 ,3,1,0.,12.0,0.,12.0,0.,12.0,0.,12.0
1979-07-02 18:03:30.370 ,3,1,0.,12.0,0.,12.0,0.,12.0,0.,12.0
1979-07-02 18:03:42.370 ,0,1,0.,12.0,0.,12.0,0.,12.0,0.,12.0
1979-07-02 18:03:54.370 ,0,1,0.,12.0,0.,12.0,0.,12.0,0.,12.0
1979-07-02 18:04:06.370 ,4,1,0.,12.0,0.,12.0,0.,12.0,0.,12.0
1979-07-02 18:04:18.370 ,4,1,0.,12.0,0.,12.0,0.,12.0,0.,12.0
1979-07-02 18:04:30.370 ,7,1,0.,12.0,0.,12.0,0.,12.0,0.,12.0
1979-07-02 18:04:42.370 ,7,1,0.,12.0,0.,12.0,0.,12.0,0.,12.0
1979-07-02 18:04:54.370 ,3,1,0.,12.0,0.,12.0,0.,12.0,0.,12.0
1979-07-02 18:05:06.370 ,3,1,0.,12.0,0.,12.0,0.,12.0,0.,12.0
1979-07-02 18:05:18.370 ,0,1,0.,12.0,0.,12.0,0.,12.0,0.,12.0
1979-07-02 18:05:30.370 ,0,1,0.,12.0,0.,12.0,0.,12.0,0.,12.0
1979-07-02 18:05:42.370 ,0,0,0.,12.0,0.,12.0,0.,12.0,0.,12.0
1979-07-02 18:05:54.370 ,0,0,0.,12.0,0.,12.0,0.,12.0,0.,12.0
1979-07-02 18:06:06.370 ,0,0,0.,12.0,0.,12.0,0.,12.0,0.,12.0
1979-07-02 18:06:18.370 ,0,0,0.,12.0,0.,12.0,0.,12.0,0.,12.0
1979-07-02 18:06:30.370 ,5,0,0.,12.0,0.,12.0,0.,12.0,0.,12.0
1979-07-02 18:06:42.370 ,5,0,0.,12.0,0.,12.0,0.,12.0,0.,12.0
1979-07-02 18:06:54.370 ,5,0,0.,12.0,0.,12.0,0.,12.0,0.,12.0
1979-07-02 18:07:06.370 ,5,0,0.,12.0,0.,12.0,0.,12.0,0.,12.0
1979-07-02 18:07:18.370 ,4,0,0.,12.0,0.,12.0,0.,12.0,0.,12.0
1979-07-02 18:07:30.370 ,4,0,0.,12.0,0.,12.0,0.,12.0,0.,12.0
1979-07-02 18:07:42.370 ,4,0,0.,12.0,0.,12.0,0.,12.0,0.,12.0
1979-07-02 18:07:54.370 ,4,0,0.,12.0,0.,12.0,0.,12.0,0.,12.0
1979-07-02 18:08:06.370 ,3,0,0.,12.0,0.,12.0,0.,12.0,0.,12.0
1979-07-02 18:08:18.370 ,3,0,0.,12.0,0.,12.0,0.,12.0,0.,12.0
1979-07-02 18:08:30.370 ,3,0,0.,12.0,0.,12.0,0.,12.0,0.,12.0
1979-07-02 18:08:42.370 ,3,0,0.,12.0,0.,12.0,0.,12.0,0.,12.0
1979-07-02 18:08:54.370 ,2,0,0.,12.0,0.,12.0,0.,12.0,0.,12.0
1979-07-02 18:09:06.370 ,2,0,0.,12.0,0.,12.0,0.,12.0,0.,12.0
1979-07-02 18:09:18.370 ,2,0,0.,12.0,0.,12.0,0.,12.0,0.,12.0
1979-07-02 18:09:30.370 ,2,0,0.,12.0,0.,12.0,0.,12.0,0.,12.0
1979-07-02 18:09:42.370 ,1,0,0.,12.0,0.,12.0,0.,12.0,0.,12.0
1979-07-02 18:09:54.370 ,1,0,0.,12.0,0.,12.0,0.,12.0,0.,12.0
1979-07-02 18:10:06.370 ,1,0,0.,12.0,0.,12.0,0.,12.0,0.,12.0
1979-07-02 18:10:18.370 ,1,0,0.,12.0,0.,12.0,0.,12.0,0.,12.0
1979-07-02 18:10:30.370 ,0,0,0.,12.0,0.,12.0,0.,12.0,0.,12.0
1979-07-02 18:10:42.370 ,0,0,0.,12.0,0.,12.0,0.,12.0,0.,12.0
1979-07-02 18:10:54.370 ,0,0,0.,12.0,0.,12.0,0.,12.0,0.,12.0
1979-07-02 18:11:06.370 ,0,0,0.,12.0,0.,12.0,0.,12.0,0.,12.0
1979-07-02 18:11:18.370 ,0,0,0.,12.0,0.,12.0,0.,12.0,0.,12.0
1979-07-02 18:11:30.370 ,0,0,0.,12.0,0.,12.0,0.,12.0,0.,12.0
1979-07-02 18:11:42.370 ,0,0,0.,12.0,0.,12.0,0.,12.0,0.,12.0
1979-07-02 18:11:54.370 ,0,0,0.,12.0,0.,12.0,0.,12.0,0.,12.0
1979-07-02 18:12:06.370 ,1,0,0.,12.0,0.,12.0,0.,12.0,0.,12.0
1979-07-02 18:12:18.370 ,1,0,0.,12.0,0.,12.0,0.,12.0,0.,12.0
1979-07-02 18:12:30.370 ,1,0,0.,12.0,0.,12.0,0.,12.0,0.,12.0
1979-07-02 18:12:42.370 ,1,0,0.,12.0,0.,12.0,0.,12.0,0.,12.0
1979-07-02 18:12:54.370 ,2,0,0.,12.0,0.,12.0,0.,12.0,0.,12.0
1979-07-02 18:13:06.370 ,2,0,0.,12.0,0.,12.0,0.,12.0,0.,12.0
1979-07-02 18:13:18.370 ,2,0,0.,12.0,0.,12.0,0.,12.0,0.,12.0
1979-07-02 18:13:30.370 ,2,0,0.,12.0,0.,12.0,0.,12.0,0.,12.0
1979-07-02 18:13:42.370 ,3,0,0.,12.0,0.,12.0,0.,12.0,0.,12.0
1979-07-02 18:13:54.370 ,3,0,0.,12.0,0.,12.0,0.,12.0,0.,12.0
1979-07-02 18:14:06.370 ,3,0,0.,12.0,0.,12.0,0.,12.0,0.,12.0
1979-07-02 18:14:18.370 ,3,0,0.,12.0,0.,12.0,0.,12.0,0.,12.0
1979-07-02 18:14:30.370 ,4,0,0.,12.0,0.,12.0,0.,12.0,0.,12.0
1979-07-02 18:14:42.370 ,4,0,0.,12.0,0.,12.0,0.,12.0,0.,12.0
1979-07-02 18:14:54.370 ,4,0,0.,12.0,0.,12.0,0.,12.0,0.,12.0
1979-07-02 18:15:06.370 ,4,0,0.,12.0,0.,12.0,0.,12.0,0.,12.0
1979-07-02 18:15:18.370 ,5,0,0.,12.0,0.,12.0,0.,12.0,0.,12.0
1979-07-02 18:15:30.370 ,5,0,0.,12.0,0.,12.0,0.,12.0,0.,12.0
1979-07-02 18:15:42.370 ,5,0,0.,12.0,0.,12.0,0.,12.0,0.,12.0
1979-07-02 18:15:54.370 ,5,0,0.,12.0,0.,12.0,0.,12.0,0.,12.0
1979-07-02 18:16:06.370 ,6,0,0.,12.0,0.,12.0,0.,12.0,0.,12.0
1979-07-02 18:16:18.370 ,6,0,0.,12.0,0.,12.0,0.,12.0,0.,12.0
1979-07-02 18:16:30.370 ,6,0,0.,12.0,0.,12.0,0.,12.0,0.,12.0
1979-07-02 18:16:42.370 ,6,0,0.,12.0,0.,12.0,0.,12.0,0.,12.0
1979-07-02 18:16:54.370 ,7,0,0.,12.0,0.,12.0,0.,12.0,0.,12.0
1979-07-02 18:17:06.370 ,7,0,0.,12.0,0.,12.0,0.,12.0,0.,12.0
1979-07-02 18:17:18.370 ,7,0,0.,12.0,0.,12.0,0.,12.0,0.,12.0
1979-07-02 18:17:30.370 ,7,0,0.,12.0,0.,12.0,0.,12.0,0.,12.0
1979-07-02 18:17:42.370 ,7,0,0.,12.0,0.,12.0,0.,12.0,0.,12.0
1979-07-02 18:17:54.370 ,7,0,0.,12.0,0.,12.0,0.,12.0,0.,12.0
1979-07-02 18:18:06.370 ,7,0,0.,12.0,0.,12.0,0.,12.0,0.,12.0
1979-07-02 18:18:18.370 ,7,0,0.,12.0,0.,12.0,0.,12.0,0.,12.0
1979-07-02 18:18:30.370 ,6,0,0.,12.0,0.,12.0,0.,12.0,0.,12.0
1979-07-02 18:18:42.370 ,6,0,0.,12.0,0.,12.0,0.,12.0,0.,12.0
1979-07-02 18:18:54.370 ,6,0,0.,12.0,0.,12.0,0.,12.0,0.,12.0
1979-07-02 18:19:06.370 ,6,0,0.,12.0,0.,12.0,0.,12.0,0.,12.0
1979-07-02 18:19:18.370 ,5,0,0.,12.0,0.,12.0,0.,12.0,0.,12.0
1979-07-02 18:19:30.370 ,5,0,0.,12.0,0.,12.0,0.,12.0,0.,12.0
1979-07-02 18:19:42.370 ,5,0,0.,12.0,0.,12.0,0.,12.0,0.,12.0
1979-07-02 18:19:54.370 ,5,0,0.,12.0,0.,12.0,0.,12.0,0.,12.0
1979-07-02 18:20:06.370 ,4,0,0.,12.0,0.,12.0,0.,12.0,0.,12.0
1979-07-02 18:20:18.370 ,4,0,0.,12.0,0.,12.0,0.,12.0,0.,12.0
1979-07-02 18:20:30.370 ,4,0,0.,12.0,0.,12.0,0.,12.0,0.,12.0
1979-07-02 18:20:42.370 ,4,0,0.,12.0,0.,12.0,0.,12.0,0.,12.0
1979-07-02 18:20:54.370 ,3,0,0.,12.0,0.,12.0,0.,12.0,0.,12.0
1979-07-02 18:21:06.370 ,3,0,0.,12.0,0.,12.0,0.,12.0,0.,12.0
1979-07-02 18:21:18.370 ,3,0,0.,12.0,0.,12.0,0.,12.0,0.,12.0
1979-07-02 18:21:30.370 ,3,0,0.,12.0,0.,12.0,0.,12.0,0.,12.0
1979-07-02 18:21:42.370 ,2,0,0.,12.0,0.,12.0,0.,12.0,0.,12.0
1979-07-02 18:21:54.370 ,2,0,0.,12.0,0.,12.0,0.,12.0,0.,12.0
1979-07-02 18:22:06.370 ,2,0,0.,12.0,0.,12.0,0.,12.0,0.,12.0
1979-07-02 18:22:18.370 ,2,0,0.,12.0,0.,12.0,0.,12.0,0.,12.0
1979-07-02 18:22:30.370 ,1,0,0.,12.0,0.,12.0,0.,12.0,0.,12.0
1979-07-02 18:22:42.370 ,1,0,0.,12.0,0.,12.0,0.,12.0,0.,12.0
1979-07-02 18:22:54.370 ,1,0,0.,12.0,0.,12.0,0.,12.0,0.,12.0
1979-07-02 18:23:06.370 ,1,0,0.,12.0,0.,12.0,0.,12.0,0.,12.0
1979-07-02 18:24:06.370 ,0,0,0.,12.0,0.,12.0,0.,12.0,0.,12.0
1979-07-02 18:24:18.370 ,0,0,0.,12.0,0.,12.0,0.,12.0,0.,12.0
1979-07-02 18:24:30.370 ,0,0,0.,12.0,0.,12.0,0.,12.0,0.,12.0
1979-07-02 18:24:42.370 ,0,0,0.,12.0,0.,12.0,0.,12.0,0.,12.0
1979-07-02 18:24:54.370 ,1,0,0.,12.0,0.,12.0,0.,12.0,0.,12.0
1979-07-02 18:25:06.370 ,1,0,0.,12.0,0.,12.0,0.,12.0,0.,12.0
1979-07-02 18:25:18.370 ,1,0,0.,12.0,0.,12.0,0.,12.0,0.,12.0
1979-07-02 18:25:30.370 ,1,0,0.,12.0,0.,12.0,0.,12.0,0.,12.0
1979-07-02 18:25:42.370 ,2,0,0.,12.0,0.,12.0,0.,12.0,0.,12.0
1979-07-02 18:25:54.370 ,2,0,0.,12.0,0.,12.0,0.,12.0,0.,12.0
1979-07-02 18:26:06.370 ,2,0,0.,12.0,0.,12.0,0.,12.0,0.,12.0
1979-07-02 18:26:18.370 ,2,0,0.,12.0,0.,12.0,0.,12.0,0.,12.0
1979-07-02 18:26:30.370 ,3,0,0.,12.0,0.,12.0,0.,12.0,0.,12.0
1979-07-02 18:26:42.370 ,3,0,0.,12.0,0.,12.0,0.,12.0,0.,12.0
1979-07-02 18:26:54.370 ,3,0,0.,12.0,0.,12.0,0.,12.0,0.,12.0
1979-07-02 18:27:06.370 ,3,0,0.,12.0,0.,12.0,0.,12.0,0.,12.0
1979-07-02 18:27:18.370 ,4,0,0.,12.0,0.,12.0,0.,12.0,0.,12.0
1979-07-02 18:27:30.370 ,4,0,0.,12.0,0.,12.0,0.,12.0,0.,12.0
1979-07-02 18:27:42.370 ,4,0,0.,12.0,0.,12.0,0.,12.0,0.,12.0
1979-07-02 18:27:54.370 ,4,0,0.,12.0,0.,12.0,0.,12.0,0.,12.0
1979-07-02 18:28:06.370 ,5,0,0.,12.0,0.,12.0,0.,12.0,0.,12.0
1979-07-02 18:28:18.370 ,5,0,0.,12.0,0.,12.0,0.,12.0,0.,12.0
1979-07-02 18:28:30.370 ,5,0,0.,12.0,0.,12.0,0.,12.0,0.,12.0
1979-07-02 18:28:42.370 ,5,0,0.,12.0,0.,12.0,0.,12.0,0.,12.0
1979-07-02 18:28:54.370 ,6,0,0.,12.0,0.,12.0,0.,12.0,0.,12.0
1979-07-02 18:29:06.370 ,6,0,0.,12.0,0.,12.0,0.,12.0,0.,12.0
1979-07-02 18:29:18.370 ,6,0,0.,12.0,0.,12.0,0.,12.0,0.,12.0
1979-07-02 18:29:30.370 ,6,0,0.,12.0,0.,12.0,0.,12.0,0.,12.0
1979-07-02 18:29:42.370 ,7,0,0.,12.0,0.,12.0,0.,12.0,0.,12.0
1979-07-02 18:29:54.370 ,7,0,0.,12.0,0.,12.0,0.,12.0,0.,12.0
1979-07-02 18:30:06.370 ,7,0,0.,12.0,0.,12.0,0.,12.0,0.,12.0
1979-07-02 18:30:18.370 ,7,0,0.,12.0,0.,12.0,0.,12.0,0.,12.0
1979-07-02 18:30:30.370 ,7,0,0.,12.0,0.,12.0,0.,12.0,0.,12.0
1979-07-02 18:30:42.370 ,7,0,0.,12.0,0.,12.0,0.,12.0,0.,12.0
1979-07-02 18:30:54.370 ,7,0,0.,12.0,0.,12.0,0.,12.0,0.,12.0
1979-07-02 18:31:06.370 ,7,0,0.,12.0,0.,12.0,0.,12.0,0.,12.0
1979-07-02 18:31:18.370 ,6,0,0.,12.0,0.,12.0,0.,12.0,0.,12.0
1979-07-02 18:31:30.370 ,6,0,0.,12.0,0.,12.0,0.,12.0,0.,12.0
1979-07-02 18:31:42.370 ,6,0,0.,12.0,0.,12.0,0.,12.0,0.,12.0
1979-07-02 18:31:54.370 ,6,0,0.,12.0,0.,12.0,0.,12.0,0.,12.0
1979-07-02 18:32:06.370 ,5,0,0.,12.0,0.,12.0,0.,12.0,0.,12.0
1979-07-02 18:32:18.370 ,5,0,0.,12.0,0.,12.0,0.,12.0,0.,12.0
1979-07-02 18:32:30.370 ,5,0,0.,12.0,0.,12.0,0.,12.0,0.,12.0
1979-07-02 18:32:42.370 ,5,0,0.,12.0,0.,12.0,0.,12.0,0.,12.0
1979-07-02 18:32:54.370 ,4,0,0.,12.0,0.,12.0,0.,12.0,0.,12.0
1979-07-02 18:33:06.370 ,4,0,0.,12.0,0.,12.0,0.,12.0,0.,12.0
1979-07-02 18:33:18.370 ,4,0,0.,12.0,0.,12.0,0.,12.0,0.,12.0
1979-07-02 18:33:30.370 ,4,0,0.,12.0,0.,12.0,0.,12.0,0.,12.0
1979-07-02 18:33:42.370 ,3,0,0.,12.0,0.,12.0,0.,12.0,0.,12.0
1979-07-02 18:33:54.370 ,3,0,0.,12.0,0.,12.0,0.,12.0,0.,12.0
1979-07-02 18:34:06.370 ,3,0,0.,12.0,0.,12.0,0.,12.0,0.,12.0
1979-07-02 18:34:18.370 ,3,0,0.,12.0,0.,12.0,0.,12.0,0.,12.0
1979-07-02 18:34:30.370 ,2,0,0.,12.0,0.,12.0,0.,12.0,0.,12.0
1979-07-02 18:34:42.370 ,2,0,0.,12.0,0.,12.0,0.,12.0,0.,12.0
1979-07-02 18:34:54.370 ,2,0,0.,12.0,0.,12.0,0.,12.0,0.,12.0
1979-07-02 18:35:06.370 ,2,0,0.,12.0,0.,12.0,0.,12.0,0.,12.0
1979-07-02 18:35:18.370 ,1,0,0.,12.0,0.,12.0,0.,12.0,0.,12.0
1979-07-02 18:35:30.370 ,1,0,0.,12.0,0.,12.0,0.,12.0,0.,12.0
1979-07-02 18:35:42.370 ,1,0,0.,12.0,0.,12.0,0.,12.0,0.,12.0
1979-07-02 18:35:54.370 ,1,0,0.,12.0,0.,12.0,0.,12.0,0.,12.0
1979-07-02 18:36:06.370 ,0,0,0.,12.0,0.,12.0,0.,12.0,0.,12.0
1979-07-02 18:36:18.370 ,0,0,0.,12.0,0.,12.0,0.,12.0,0.,12.0
1979-07-02 18:36:30.370 ,0,0,0.,12.0,0.,12.0,0.,12.0,0.,12.0
1979-07-02 18:36:42.370 ,0,0,0.,12.0,0.,12.0,0.,12.0,0.,12.0
1979-07-02 18:36:54.370 ,0,0,0.,12.0,0.,12.0,0.,12.0,0.,12.0
1979-07-02 18:37:06.370 ,0,0,0.,12.0,0.,12.0,0.,12.0,0.,12.0
1979-07-02 18:37:18.370 ,0,0,0.,12.0,0.,12.0,0.,12.0,0.,12.0
1979-07-02 18:37:30.370 ,0,0,0.,12.0,0.,12.0,0.,12.0,0.,12.0
1979-07-02 18:37:42.370 ,1,0,0.,12.0,0.,12.0,0.,12.0,0.,12.0
1979-07-02 18:37:54.370 ,1,0,0.,12.0,0.,12.0,0.,12.0,0.,12.0
1979-07-02 18:38:06.370 ,1,0,0.,12.0,0.,12.0,0.,12.0,0.,12.0
1979-07-02 18:38:18.370 ,1,0,0.,12.0,0.,12.0,0.,12.0,0.,12.0
1979-07-02 18:38:30.370 ,2,0,0.,12.0,0.,12.0,0.,12.0,0.,12.0
1979-07-02 18:38:42.370 ,2,0,0.,12.0,0.,12.0,0.,12.0,0.,12.0
1979-07-02 18:38:54.370 ,2,0,0.,12.0,0.,12.0,0.,12.0,0.,12.0
1979-07-02 18:39:06.370 ,2,0,0.,12.0,0.,12.0,0.,12.0,0.,12.0
1979-07-02 18:39:18.370 ,3,0,0.,12.0,0.,12.0,0.,12.0,0.,12.0
1979-07-02 18:39:30.370 ,3,0,0.,12.0,0.,12.0,0.,12.0,0.,12.0
1979-07-02 18:39:42.370 ,3,0,0.,12.0,0.,12.0,0.,12.0,0.,12.0
1979-07-02 18:39:54.370 ,3,0,0.,12.0,0.,12.0,0.,12.0,0.,12.0
1979-07-02 18:40:06.370 ,4,0,0.,12.0,0.,12.0,0.,12.0,0.,12.0
1979-07-02 18:40:18.370 ,4,0,0.,12.0,0.,12.0,0.,12.0,0.,12.0
1979-07-02 18:40:30.370 ,4,0,0.,12.0,0.,12.0,0.,12.0,0.,12.0
1979-07-02 18:40:42.370 ,4,0,0.,12.0,0.,12.0,0.,12.0,0.,12.0
1979-07-02 18:40:54.370 ,5,0,0.,12.0,0.,12.0,0.,12.0,0.,12.0
1979-07-02 18:41:06.370 ,5,0,0.,12.0,0.,12.0,0.,12.0,0.,12.0
1979-07-02 18:41:18.370 ,5,0,0.,12.0,0.,12.0,0.,12.0,0.,12.0
1979-07-02 18:41:30.370 ,5,0,0.,12.0,0.,12.0,0.,12.0,0.,12.0
1979-07-02 18:41:42.370 ,6,0,0.,12.0,0.,12.0,0.,12.0,0.,12.0
1979-07-02 18:41:54.370 ,6,0,0.,12.0,0.,12.0,0.,12.0,0.,12.0
1979-07-02 18:42:06.370 ,6,0,0.,12.0,0.,12.0,0.,12.0,0.,12.0
1979-07-02 18:42:18.370 ,6,0,0.,12.0,0.,12.0,0.,12.0,0.,12.0
1979-07-02 18:42:30.370 ,7,0,0.,12.0,0.,12.0,0.,12.0,0.,12.0
1979-07-02 18:42:42.370 ,7,0,0.,12.0,0.,12.0,0.,12.0,0.,12.0
1979-07-02 18:42:54.370 ,7,0,0.,12.0,0.,12.0,0.,12.0,0.,12.0
1979-07-02 18:43:06.370 ,7,0,0.,12.0,0.,12.0,0.,12.0,0.,12.0
1979-07-02 18:43:18.370 ,3,1,0.,12.0,0.,12.0,0.,12.0,0.,12.0
1979-07-02 18:43:30.370 ,3,1,0.,12.0,0.,12.0,0.,12.0,0.,12.0
1979-07-02 18:43:42.370 ,0,1,0.,12.0,0.,12.0,0.,12.0,0.,12.0
1979-07-02 18:43:54.370 ,0,1,0.,12.0,0.,12.0,0.,12.0,0.,12.0
1979-07-02 18:44:06.370 ,4,1,0.,12.0,0.,12.0,0.,12.0,0.,12.0
1979-07-02 18:44:18.370 ,4,1,0.,12.0,0.,12.0,0.,12.0,0.,12.0
1979-07-02 18:44:30.370 ,7,1,0.,12.0,0.,12.0,0.,12.0,0.,12.0
1979-07-02 18:44:42.370 ,7,1,0.,12.0,0.,12.0,0.,12.0,0.,12.0
1979-07-02 18:44:54.370 ,3,1,0.,12.0,0.,12.0,0.,12.0,0.,12.0
1979-07-02 18:45:06.370 ,3,1,0.,12.0,0.,12.0,0.,12.0,0.,12.0
1979-07-02 18:45:18.370 ,0,1,0.,12.0,0.,12.0,0.,12.0,0.,12.0
1979-07-02 18:45:30.370 ,0,1,0.,12.0,0.,12.0,0.,12.0,0.,12.0
1979-07-02 18:45:42.370 ,4,1,0.,12.0,0.,12.0,0.,12.0,0.,12.0
1979-07-02 18:45:54.370 ,4,1,0.,12.0,0.,12.0,0.,12.0,0.,12.0
1979-07-02 18:46:06.370 ,7,1,0.,12.0,0.,12.0,0.,12.0,0.,12.0
1979-07-02 18:46:18.370 ,7,1,0.,12.0,0.,12.0,0.,12.0,0.,12.0
1979-07-02 18:46:30.370 ,3,1,0.,12.0,0.,12.0,0.,12.0,0.,12.0
1979-07-02 18:46:42.370 ,3,1,0.,12.0,0.,12.0,0.,12.0,0.,12.0
1979-07-02 18:46:54.370 ,0,1,0.,12.0,0.,12.0,0.,12.0,0.,12.0
1979-07-02 18:47:06.370 ,0,1,0.,12.0,0.,12.0,0.,12.0,0.,12.0
1979-07-02 18:47:18.370 ,4,1,0.,12.0,0.,12.0,0.,12.0,0.,12.0
1979-07-02 18:47:30.370 ,4,1,0.,12.0,0.,12.0,0.,12.0,0.,12.0
1979-07-02 18:47:42.370 ,7,1,0.,12.0,0.,12.0,0.,12.0,0.,12.0
1979-07-02 18:47:54.370 ,7,1,0.,12.0,0.,12.0,0.,12.0,0.,12.0
1979-07-02 18:48:06.370 ,3,1,0.,12.0,0.,12.0,0.,12.0,0.,12.0
1979-07-02 18:48:18.370 ,3,1,0.,12.0,0.,12.0,0.,12.0,0.,12.0
1979-07-02 18:48:30.370 ,0,1,0.,12.0,0.,12.0,1.,12.0,0.,12.0
1979-07-02 18:48:42.370 ,0,1,0.,12.0,0.,12.0,0.,12.0,0.,12.0
1979-07-02 18:48:54.370 ,4,1,0.,12.0,0.,12.0,0.,12.0,0.,12.0
1979-07-02 18:49:06.370 ,4,1,0.,12.0,0.,12.0,0.,12.0,0.,12.0
1979-07-02 18:49:18.370 ,7,1,0.,12.0,0.,12.0,0.,12.0,0.,12.0
1979-07-02 18:49:30.370 ,7,1,0.,12.0,0.,12.0,0.,12.0,0.,12.0
1979-07-02 18:49:42.370 ,3,1,0.,12.0,0.,12.0,0.,12.0,0.,12.0
1979-07-02 18:49:54.370 ,3,1,0.,12.0,0.,12.0,0.,12.0,0.,12.0
1979-07-02 18:50:06.370 ,0,1,0.,12.0,0.,12.0,0.,12.0,0.,12.0
1979-07-02 18:50:18.370 ,0,1,0.,12.0,0.,12.0,0.,12.0,0.,12.0
1979-07-02 18:50:30.370 ,4,1,0.,12.0,0.,12.0,0.,12.0,0.,12.0
1979-07-02 18:50:42.370 ,4,1,0.,12.0,0.,12.0,0.,12.0,0.,12.0
1979-07-02 18:50:54.370 ,7,1,0.,12.0,0.,12.0,0.,12.0,0.,12.0
1979-07-02 18:51:06.370 ,7,1,0.,12.0,0.,12.0,0.,12.0,0.,12.0
1979-07-02 18:51:18.370 ,3,1,0.,12.0,0.,12.0,0.,12.0,0.,12.0
1979-07-02 18:51:30.370 ,3,1,0.,12.0,0.,12.0,0.,12.0,0.,12.0
1979-07-02 18:51:42.370 ,0,1,0.,12.0,0.,12.0,0.,12.0,0.,12.0
1979-07-02 18:51:54.370 ,0,1,0.,12.0,0.,12.0,0.,12.0,0.,12.0
1979-07-02 18:52:06.370 ,4,1,0.,12.0,0.,12.0,0.,12.0,0.,12.0
1979-07-02 18:52:18.370 ,4,1,0.,12.0,0.,12.0,0.,12.0,0.,12.0
1979-07-02 18:52:30.370 ,7,1,0.,12.0,0.,12.0,0.,12.0,0.,12.0
1979-07-02 18:52:42.370 ,7,1,0.,12.0,0.,12.0,0.,12.0,0.,12.0
1979-07-02 18:52:54.370 ,3,1,0.,12.0,0.,12.0,0.,12.0,0.,12.0
1979-07-02 18:53:06.370 ,3,1,0.,12.0,0.,12.0,0.,12.0,0.,12.0
1979-07-02 18:53:18.370 ,0,1,0.,12.0,0.,12.0,0.,12.0,0.,12.0
1979-07-02 18:53:30.370 ,0,1,0.,12.0,0.,12.0,0.,12.0,0.,12.0
1979-07-02 18:53:42.370 ,0,0,0.,12.0,1.,12.0,0.,12.0,0.,12.0
1979-07-02 18:53:54.370 ,0,0,0.,12.0,0.,12.0,0.,12.0,0.,12.0
1979-07-02 18:54:06.370 ,0,0,0.,12.0,0.,12.0,0.,12.0,0.,12.0
1979-07-02 18:54:18.370 ,0,0,0.,12.0,0.,12.0,0.,12.0,0.,12.0
1979-07-02 18:54:30.370 ,5,0,0.,12.0,0.,12.0,0.,12.0,0.,12.0
1979-07-02 18:54:42.370 ,5,0,0.,12.0,0.,12.0,0.,12.0,0.,12.0
1979-07-02 18:54:54.370 ,5,0,0.,12.0,0.,12.0,0.,12.0,0.,12.0
1979-07-02 18:55:06.370 ,5,0,0.,12.0,0.,12.0,0.,12.0,0.,12.0
1979-07-02 18:55:18.370 ,4,0,1.,12.0,0.,12.0,0.,12.0,0.,12.0
1979-07-02 18:55:30.370 ,4,0,0.,12.0,0.,12.0,0.,12.0,0.,12.0
1979-07-02 18:55:42.370 ,4,0,0.,12.0,0.,12.0,0.,12.0,0.,12.0
1979-07-02 18:55:54.370 ,4,0,0.,12.0,0.,12.0,0.,12.0,0.,12.0
1979-07-02 18:56:06.370 ,3,0,0.,12.0,0.,12.0,0.,12.0,0.,12.0
1979-07-02 18:56:18.370 ,3,0,0.,12.0,0.,12.0,0.,12.0,0.,12.0
1979-07-02 18:56:30.370 ,3,0,0.,12.0,0.,12.0,0.,12.0,0.,12.0
1979-07-02 18:56:42.370 ,3,0,0.,12.0,0.,12.0,0.,12.0,0.,12.0
1979-07-02 18:56:54.370 ,2,0,0.,12.0,0.,12.0,0.,12.0,0.,12.0
1979-07-02 18:57:06.370 ,2,0,0.,12.0,0.,12.0,0.,12.0,0.,12.0
1979-07-02 18:57:18.370 ,2,0,0.,12.0,0.,12.0,0.,12.0,0.,12.0
1979-07-02 18:57:30.370 ,2,0,0.,12.0,0.,12.0,0.,12.0,0.,12.0
1979-07-02 18:57:42.370 ,1,0,0.,12.0,0.,12.0,0.,12.0,0.,12.0
1979-07-02 18:57:54.370 ,1,0,1.,12.0,0.,12.0,0.,12.0,0.,12.0
1979-07-02 18:58:06.370 ,1,0,0.,12.0,0.,12.0,0.,12.0,0.,12.0
1979-07-02 18:58:18.370 ,1,0,0.,12.0,0.,12.0,0.,12.0,0.,12.0
1979-07-02 18:58:30.370 ,0,0,0.,12.0,0.,12.0,0.,12.0,0.,12.0
1979-07-02 18:58:42.370 ,0,0,0.,12.0,0.,12.0,0.,12.0,0.,12.0
1979-07-02 18:58:54.370 ,0,0,0.,12.0,0.,12.0,0.,12.0,0.,12.0
1979-07-02 18:59:06.370 ,0,0,0.,12.0,0.,12.0,0.,12.0,0.,12.0
1979-07-02 18:59:18.370 ,0,0,1.,12.0,0.,12.0,0.,12.0,0.,12.0
1979-07-02 18:59:30.370 ,0,0,0.,12.0,0.,12.0,0.,12.0,0.,12.0
1979-07-02 18:59:42.370 ,0,0,0.,12.0,0.,12.0,0.,12.0,0.,12.0
1979-07-02 18:59:54.370 ,0,0,0.,12.0,0.,12.0,0.,12.0,0.,12.0
1979-07-02 19:00:06.370 ,1,0,0.,12.0,0.,12.0,0.,12.0,0.,12.0
1979-07-02 19:00:18.370 ,1,0,0.,12.0,0.,12.0,0.,12.0,0.,12.0
1979-07-02 19:00:30.370 ,1,0,0.,12.0,0.,12.0,0.,12.0,0.,12.0
1979-07-02 19:00:42.370 ,1,0,0.,12.0,0.,12.0,0.,12.0,0.,12.0
1979-07-02 19:00:54.370 ,2,0,0.,12.0,0.,12.0,0.,12.0,0.,12.0
1979-07-02 19:01:06.370 ,2,0,0.,12.0,0.,12.0,0.,12.0,0.,12.0
1979-07-02 19:01:18.370 ,2,0,0.,12.0,0.,12.0,0.,12.0,0.,12.0
1979-07-02 19:01:30.370 ,2,0,0.,12.0,0.,12.0,0.,12.0,0.,12.0
1979-07-02 19:01:42.370 ,3,0,0.,12.0,0.,12.0,0.,12.0,0.,12.0
1979-07-02 19:01:54.370 ,3,0,0.,12.0,0.,12.0,0.,12.0,0.,12.0
1979-07-02 19:02:06.370 ,3,0,0.,12.0,0.,12.0,0.,12.0,0.,12.0
1979-07-02 19:02:18.370 ,3,0,0.,12.0,0.,12.0,0.,12.0,0.,12.0
1979-07-02 19:02:30.370 ,4,0,0.,12.0,0.,12.0,0.,12.0,0.,12.0
1979-07-02 19:02:42.370 ,4,0,0.,12.0,0.,12.0,0.,12.0,0.,12.0
1979-07-02 19:02:54.370 ,4,0,0.,12.0,0.,12.0,0.,12.0,0.,12.0
1979-07-02 19:03:06.370 ,4,0,0.,12.0,0.,12.0,0.,12.0,0.,12.0
1979-07-02 19:03:18.370 ,5,0,0.,12.0,0.,12.0,0.,12.0,0.,12.0
1979-07-02 19:03:30.370 ,5,0,0.,12.0,0.,12.0,0.,12.0,0.,12.0
1979-07-02 19:03:42.370 ,0,0,0.,12.0,0.,12.0,0.,12.0,0.,12.0
1979-07-02 19:03:54.370 ,0,0,0.,12.0,0.,12.0,0.,12.0,0.,12.0
1979-07-02 19:04:14.770 ,0,0,,0,,0,,0,,0
1979-07-02 19:04:26.770 ,0,0,,0,,0,,0,,0
1979-07-02 19:04:30.370 ,0,0,,0,,0,,0,,0
1979-07-02 19:04:42.370 ,0,0,0.,12.0,0.,12.0,0.,12.0,0.,12.0
1979-07-02 19:04:54.370 ,7,0,0.,12.0,0.,12.0,0.,12.0,0.,12.0
1979-07-02 19:05:06.370 ,7,0,0.,12.0,0.,12.0,0.,12.0,0.,12.0
1979-07-02 19:05:18.370 ,7,0,0.,12.0,0.,12.0,0.,12.0,0.,12.0
1979-07-02 19:05:30.370 ,7,0,0.,12.0,0.,12.0,1.,12.0,0.,12.0
1979-07-02 19:05:42.370 ,7,0,,0,,0,,0,,0
1979-07-02 19:05:54.370 ,7,0,0.,12.0,0.,12.0,0.,12.0,0.,12.0
1979-07-02 19:06:06.370 ,7,0,0.,12.0,0.,12.0,0.,12.0,0.,12.0
1979-07-02 19:06:18.370 ,7,0,0.,12.0,0.,12.0,0.,12.0,0.,12.0
1979-07-02 19:06:30.370 ,6,0,0.,12.0,0.,12.0,0.,12.0,0.,12.0
1979-07-02 19:06:42.370 ,6,0,0.,12.0,0.,12.0,0.,12.0,0.,12.0
1979-07-02 19:06:54.370 ,6,0,0.,12.0,0.,12.0,0.,12.0,0.,12.0
1979-07-02 19:07:06.370 ,6,0,0.,12.0,0.,12.0,0.,12.0,0.,12.0
1979-07-02 19:07:18.370 ,5,0,0.,12.0,0.,12.0,0.,12.0,0.,12.0
1979-07-02 19:07:30.370 ,5,0,0.,12.0,0.,12.0,0.,12.0,0.,12.0
1979-07-02 19:07:42.370 ,5,0,0.,12.0,0.,12.0,0.,12.0,0.,12.0
1979-07-02 19:07:54.370 ,5,0,0.,12.0,0.,12.0,0.,12.0,0.,12.0
1979-07-02 19:08:06.370 ,4,0,0.,12.0,0.,12.0,0.,12.0,0.,12.0
1979-07-02 19:08:18.370 ,4,0,0.,12.0,0.,12.0,0.,12.0,0.,12.0
1979-07-02 19:08:30.370 ,4,0,0.,12.0,0.,12.0,0.,12.0,0.,12.0
1979-07-02 19:08:42.370 ,4,0,0.,12.0,0.,12.0,0.,12.0,0.,12.0
1979-07-02 19:08:54.370 ,3,0,0.,12.0,0.,12.0,0.,12.0,0.,12.0
1979-07-02 19:09:06.370 ,3,0,0.,12.0,0.,12.0,0.,12.0,0.,12.0
1979-07-02 19:09:18.370 ,3,0,0.,12.0,0.,12.0,0.,12.0,0.,12.0
1979-07-02 19:09:30.370 ,3,0,0.,12.0,0.,12.0,0.,12.0,0.,12.0
1979-07-02 19:09:42.370 ,2,0,0.,12.0,0.,12.0,0.,12.0,0.,12.0
1979-07-02 19:09:54.370 ,2,0,0.,12.0,0.,12.0,0.,12.0,0.,12.0
1979-07-02 19:10:06.370 ,2,0,0.,12.0,0.,12.0,0.,12.0,0.,12.0
1979-07-02 19:10:18.370 ,2,0,0.,12.0,0.,12.0,0.,12.0,0.,12.0
1979-07-02 19:10:30.370 ,1,0,0.,12.0,0.,12.0,0.,12.0,0.,12.0
1979-07-02 19:10:42.370 ,1,0,0.,12.0,0.,12.0,0.,12.0,0.,12.0
1979-07-02 19:10:54.370 ,0,0,0.,12.0,0.,12.0,0.,12.0,0.,12.0
1979-07-02 19:11:06.370 ,0,0,,0,,0,,0,,0
1979-07-02 19:12:26.770 ,0,0,,0,,0,,0,,0
1979-07-02 19:12:38.770 ,0,0,,0,,0,,0,,0
1979-07-02 19:12:30.370 ,0,0,0.,12.0,0.,12.0,0.,12.0,0.,12.0
1979-07-02 19:12:42.370 ,0,0,0.,12.0,0.,12.0,0.,12.0,0.,12.0
1979-07-02 19:12:54.370 ,1,0,0.,12.0,0.,12.0,0.,12.0,0.,12.0
1979-07-02 19:13:06.370 ,1,0,0.,12.0,0.,12.0,0.,12.0,0.,12.0
1979-07-02 19:13:18.370 ,1,0,0.,12.0,0.,12.0,0.,12.0,0.,12.0
1979-07-02 19:13:30.370 ,1,0,0.,12.0,0.,12.0,0.,12.0,0.,12.0
1979-07-02 19:13:42.370 ,2,0,0.,12.0,0.,12.0,0.,12.0,0.,12.0
1979-07-02 19:13:54.370 ,2,0,0.,12.0,0.,12.0,0.,12.0,0.,12.0
1979-07-02 19:14:06.370 ,2,0,0.,12.0,0.,12.0,0.,12.0,0.,12.0
1979-07-02 19:14:18.370 ,2,0,0.,12.0,0.,12.0,0.,12.0,0.,12.0
1979-07-02 19:14:30.370 ,3,0,0.,12.0,0.,12.0,0.,12.0,0.,12.0
1979-07-02 19:14:42.370 ,3,0,0.,12.0,0.,12.0,0.,12.0,0.,12.0
1979-07-02 19:14:54.370 ,3,0,0.,12.0,0.,12.0,0.,12.0,0.,12.0
1979-07-02 19:15:06.370 ,3,0,0.,12.0,0.,12.0,0.,12.0,0.,12.0
1979-07-02 19:15:18.370 ,4,0,0.,12.0,0.,12.0,0.,12.0,0.,12.0
1979-07-02 19:15:30.370 ,4,0,0.,12.0,0.,12.0,0.,12.0,0.,12.0
1979-07-02 19:15:42.370 ,4,0,0.,12.0,0.,12.0,0.,12.0,0.,12.0
1979-07-02 19:15:54.370 ,4,0,0.,12.0,0.,12.0,0.,12.0,0.,12.0
1979-07-02 19:16:06.370 ,5,0,0.,12.0,0.,12.0,0.,12.0,0.,12.0
1979-07-02 19:16:18.370 ,5,0,0.,12.0,0.,12.0,0.,12.0,0.,12.0
1979-07-02 19:16:30.370 ,5,0,0.,12.0,0.,12.0,0.,12.0,0.,12.0
1979-07-02 19:16:42.370 ,5,0,0.,12.0,0.,12.0,0.,12.0,0.,12.0
1979-07-02 19:16:54.370 ,6,0,0.,12.0,0.,12.0,0.,12.0,0.,12.0
1979-07-02 19:17:06.370 ,6,0,0.,12.0,0.,12.0,0.,12.0,0.,12.0
1979-07-02 19:17:18.370 ,6,0,0.,12.0,0.,12.0,0.,12.0,0.,12.0
1979-07-02 19:17:30.370 ,6,0,0.,12.0,0.,12.0,0.,12.0,0.,12.0
1979-07-02 19:17:42.370 ,7,0,0.,12.0,0.,12.0,0.,12.0,0.,12.0
1979-07-02 19:17:54.370 ,7,0,0.,12.0,0.,12.0,0.,12.0,0.,12.0
1979-07-02 19:18:06.370 ,7,0,0.,12.0,0.,12.0,0.,12.0,0.,12.0
1979-07-02 19:18:18.370 ,7,0,0.,12.0,0.,12.0,0.,12.0,0.,12.0
1979-07-02 19:18:30.370 ,7,0,0.,12.0,0.,12.0,0.,12.0,0.,12.0
1979-07-02 19:18:42.370 ,7,0,0.,12.0,0.,12.0,0.,12.0,0.,12.0
1979-07-02 19:18:54.370 ,7,0,0.,12.0,0.,12.0,0.,12.0,0.,12.0
1979-07-02 19:19:06.370 ,7,0,0.,12.0,0.,12.0,0.,12.0,0.,12.0
1979-07-02 19:19:18.370 ,6,0,0.,12.0,0.,12.0,0.,12.0,0.,12.0
1979-07-02 19:19:30.370 ,6,0,0.,12.0,0.,12.0,0.,12.0,0.,12.0